Location: Goettingen
(51.5300°N, 9.9433°E)
Time: 14:34:38
(UTC+02:00)

ISS - Pass Details

Date: 30 September 2022
Orbit: 414 x 417 km, 51.6° (Epoch: 28 September)

Event Time Altitude Azimuth Distance (km) Brightness Sun altitude
Rises 21:17:59 0° 282° (WNW) 2,362 1.5 -21.7°
Reaches altitude 10° 21:20:30 10° 263° (W) 1,495 -0.2 -22.1°
Enters shadow 21:22:48 19° 220° (SW) 1,079 -1.6 -22.4°
